Flag for Canada Weather past 2 weeks in Edmundston, New Brunswick, Canada

Now
62 °F

Cool.


Feels Like: 62 °F
Forecast: 60 / 82 °F
Wind: 8 mph from Southeast

Location: St Leonard

Current Time: Jul 7, 2015 at 6:39:17 AM

Latest Report: Jul 7, 2015 at 6:00 AM


Visibility: N/A

Pressure: 30.05 "Hg

Humidity: 81%

Dew point: 56 °F

Location of EdmundstonLocation

Historic Weather in Edmundston — Graph

°F

Edmundston temperature yesterday

Maximum temperature yesterday: 80 °F (at 5:00 PM)
Minimum temperature yesterday: 51 °F (at 6:00 AM)
Average temperature yesterday: 67 °F

Past Weeks' High & Low Weather Summary

 TemperatureHumidityPressure
High80 °F (Jul 6, 5:00 PM)100% (Jun 29, 8:00 AM)30.20 "Hg (Jun 29, 8:00 AM)
Low42 °F (Jun 26, 6:00 AM)30% (Jun 27, 5:00 PM)29.61 "Hg (Jul 2, 6:00 AM)
Average59 °F76%29.91 "Hg
* Reported Jun 22 5:00 AM — Jul 7 5:00 AM, Edmundston, Weather by CustomWeather, © 2015

Note: Actual official high and low records may vary slightly from our data, if they occured in-between our weather recording intervals... More about our weather records

Advertising

Edmundston weather history for previous 24 hours

 ConditionsComfort  
Time TempWeatherWind HumidityBarometerVisibility
5:00 AM
Tue, Jul 7
61 °FCool.6 mph87%30.05 "HgN/A
4:00 AM62 °FCool.5 mph84%30.06 "HgN/A
3:00 AM61 °FCool.3 mph85%30.05 "HgN/A
2:00 AM62 °FMild.3 mph83%30.06 "HgN/A
1:00 AM63 °FMild.3 mph79%30.06 "HgN/A
12:00 AM66 °FMild.8 mph73%30.06 "HgN/A
11:00 PM
Mon, Jul 6
68 °FMild.7 mph72%30.08 "HgN/A
10:00 PM69 °FMild.7 mph70%30.08 "HgN/A
9:00 PM72 °FMild.6 mph63%30.07 "HgN/A
8:00 PM76 °FMild.7 mph54%30.06 "HgN/A
7:00 PM78 °FWarm.8 mph48%30.06 "HgN/A
6:00 PM79 °FWarm.6 mph48%30.08 "HgN/A
5:00 PM80 °FWarm.5 mph45%30.10 "HgN/A
4:00 PM78 °FWarm.5 mph42%30.10 "HgN/A
3:00 PM79 °FWarm.7 mph45%30.10 "HgN/A
2:00 PM78 °FWarm.5 mph50%30.11 "HgN/A
1:00 PM76 °FMild.5 mph50%30.12 "HgN/A
12:00 PM73 °FMild.5 mph53%30.15 "HgN/A
11:00 AM71 °FMild.3 mph65%30.14 "HgN/A
10:00 AM67 °FMild.1 mph76%30.14 "HgN/A
9:00 AM62 °FCool.2 mph83%30.14 "HgN/A
8:00 AM58 °FCool.3 mph93%30.13 "HgN/A
7:00 AM54 °FCool.1 mph91%30.12 "HgN/A
6:00 AM51 °FCool.1 mph94%30.10 "HgN/A
Weather by CustomWeather, © 2015

See weather overviewHow to use our weather pages